Starlink 32220

operational
NORAD ID: 60370 Int'l Des: 2024-138 Owner: SPXS Country: US Constellation: starlink
LEOCIRCULAR

About Starlink 32220

Description loading...

Live Position

Loading 3D Globe...

Upcoming Passes

Altitude History

Altitude vs Time

uPlot chart will show altitude changes over time

Two-Line Element Set

1 60370U 24138R 25352.35931807 -.00001130 00000-0 -26053-4 0 9994
2 60370 53.1616 327.5082 0001187 101.9936 258.1198 15.30180475 78174
Epoch: Dec 18, 2025 • Age: 17 hours

Current Status

Altitude 487.7 km
Velocity 7.62 km/s
Sub-Earth Point -37.07°S, 71.22°E
Launch Date Aug 4, 2024
Age 1.3 years
Type internet

Technical Details

Classification Payload
Mass 730.00 kg
Dry Mass 700.00 kg
Total Mass 730.00 kg
Length 0.30 m
Diameter 4.10 m
Span 29.00 m
Shape Box + pan
Manufacturer SPXS
Bus Type Starlink V2M
Phase Status In Orbit
Owner/State SPXS/US

Large Constellations

Loading constellations...